Flag for U.S.A. Weather past 2 weeks in Furnace Creek (Death Valley), California, U.S.A.

Now
46 °F

Clear.


Feels Like: 44 °F
Forecast: 42 / 84 °F
Wind: 5 mph from Northeast

Location: Desert Rock Airport

Current Time: Mar 5, 2015 at 11:08:58 PM

Latest Report: Mar 5, 2015 at 9:52 PM


Visibility: 10 mi

Pressure: 30.29 "Hg

Humidity: 46%

Dew point: 26 °F

Location of Furnace Creek (Death Valley)Location

Historic Weather in Furnace Creek (Death Valley) — Graph

°F

Furnace Creek (Death Valley) temperature yesterday

Maximum temperature yesterday: 57 °F (at 3:52 PM)
Minimum temperature yesterday: 33 °F (at 5:52 AM)
Average temperature yesterday: 44 °F

Past Weeks' High & Low Weather Summary

 TemperatureHumidityPressure
High74 °F (Feb 20, 3:52 PM)97% (Mar 2, 9:52 PM)30.35 "Hg (Mar 2, 9:52 PM)
Low32 °F (Mar 3, 2:52 AM)10% (Feb 20, 4:52 PM)29.46 "Hg (Feb 27, 8:52 PM)
Average48 °F47%29.91 "Hg
* Reported Feb 18 9:52 PM — Mar 5 9:52 PM, Furnace Creek (Death Valley), Weather by CustomWeather, © 2015

Note: Actual official high and low records may vary slightly from our data, if they occured in-between our weather recording intervals... More about our weather records

Advertising

Furnace Creek (Death Valley) weather history for previous 24 hours

 ConditionsComfort  
Time TempWeatherWind HumidityBarometerVisibility
9:52 PM
Thu, Mar 5
46 °FClear.5 mph46%30.29 "Hg10 mi
8:52 PM47 °FClear.6 mph41%30.28 "Hg10 mi
7:52 PM49 °FClear.No wind39%30.27 "Hg10 mi
6:52 PM51 °FClear.6 mph32%30.27 "Hg10 mi
5:52 PM57 °FClear.7 mph17%30.25 "Hg10 mi
4:52 PM62 °FSunny.10 mph14%30.24 "Hg10 mi
3:52 PM64 °FSunny.5 mph15%30.23 "Hg10 mi
2:52 PM64 °FSunny.6 mph16%30.24 "Hg10 mi
1:52 PM64 °FSunny.6 mph18%30.26 "Hg10 mi
12:52 PM61 °FSunny.5 mph20%30.28 "Hg10 mi
11:52 AM59 °FSunny.6 mph24%30.32 "Hg10 mi
10:52 AM57 °FSunny.9 mph25%30.33 "Hg10 mi
9:52 AM53 °FSunny.13 mph28%30.35 "Hg10 mi
8:52 AM49 °FSunny.12 mph33%30.35 "Hg10 mi
7:52 AM45 °FSunny.16 mph37%30.34 "Hg10 mi
6:52 AM40 °FSunny.6 mph49%30.33 "Hg10 mi
5:52 AM39 °FClear.9 mph48%30.30 "Hg10 mi
4:52 AM39 °FClear.6 mph50%30.28 "Hg10 mi
3:52 AM40 °FClear.6 mph47%30.26 "Hg10 mi
2:52 AM41 °FClear.10 mph47%30.24 "Hg10 mi
1:52 AM39 °FClear.6 mph53%30.24 "Hg10 mi
12:52 AM42 °FClear.5 mph43%30.24 "Hg10 mi
11:52 PM
Wed, Mar 4
39 °FClear.No wind55%30.24 "Hg10 mi
Weather by CustomWeather, © 2015

See weather overviewHow to use our weather pages